Tracking 19559 objects as of 26-Mar-2019
HD Live streaming from Space Station
objects crossing your sky now

IRIDIUM 161

Track IRIDIUM 161 now!
10-day predictions
IRIDIUM 161 is classified as:


NORAD ID: 43478
Int'l Code: 2018-047C
Perigee: 753.1 km
Apogee: 756.6 km
Inclination: 86.4 °
Period: 99.8 minutes
Semi major axis: 7125 km
RCS: Unknown
Launch date: May 22, 2018
Source: United States (US)
Launch site: AIR FORCE WESTERN TEST RANGE (AFWTR)
aabbcc
Your satellite tracking list
Your tracking list is empty




NASA's NSSDC Master Catalog

Two Line Element Set (TLE):
1 43478U 18047C   19084.91198984 +.00000085 +00000-0 +19192-4 0  9996
2 43478 086.4453 111.9197 0002472 084.8657 275.2826 14.43280524044317
Source of the keplerian elements: AFSPC